GFSNGP_850_temp_105.txt.gz
Temp
6 6 6 6 6 6 2 5 3 6 7 8 7 8 9 10 10 10 10 10 11 12 12 12 12 12 12 12 13 12 12 12 11 11 11 11 11 10 11 11 10 10 9 9
4 7 6 6 6 6 7 6 7 6 7 8 9 9 9 9 10 10 10 9 10 10 11 11 11 11 11 11 11 11 11 10 10 10 10 10 10 10 10 10 9 9 8 8
4 5 7 5 6 6 7 8 6 7 8 9 9 8 7 8 8 9 10 9 9 9 10 10 10 10 10 10 10 9 9 9 9 9 9 8 9 9 9 9 8 8 8 8
3 5 5 6 7 7 7 7 8 8 8 8 7 7 7 7 8 9 9 10 9 9 9 9 9 9 8 8 8 8 8 8 8 8 8 8 8 8 8 8 7 7 7 7
4 4 6 7 7 6 7 7 7 7 7 7 7 7 6 7 7 7 8 9 9 9 9 9 8 8 8 8 8 8 8 8 8 8 8 8 7 7 7 7 7 7 6 6
3 4 6 7 7 7 7 6 7 7 7 7 7 5 5 6 6 6 7 8 9 10 9 9 8 8 8 8 8 8 8 8 7 7 7 7 7 7 6 6 6 6 6 5
4 3 5 6 7 7 6 6 8 8 7 7 6 6 5 6 6 6 6 7 8 9 9 9 8 8 8 8 8 7 7 7 7 7 6 6 6 6 6 6 6 5 5 5
3 4 4 6 7 7 5 7 7 7 7 7 6 6 6 5 5 5 6 6 7 8 8 8 8 8 7 7 7 6 6 7 6 6 6 6 5 5 5 5 5 5 4 4
4 4 4 4 5 5 6 7 7 7 7 7 6 5 5 5 5 5 5 5 6 6 7 7 7 7 7 6 6 6 6 6 6 6 5 5 5 4 4 4 4 4 4 4
4 4 3 4 5 5 6 6 6 6 6 6 6 5 5 5 5 5 5 5 5 5 6 6 6 6 6 6 6 5 5 5 5 5 4 4 4 4 4 4 3 4 3 3
3 4 4 4 4 5 5 5 5 6 6 6 5 5 5 5 4 4 4 5 4 5 5 5 5 5 5 5 5 4 4 4 4 4 4 3 3 3 3 3 3 3 3 2
4 3 3 4 4 4 5 4 4 5 5 5 5 5 5 5 4 4 4 4 4 4 4 4 4 4 4 4 4 4 4 4 3 3 3 3 3 3 3 2 2 2 2 2
3 4 4 4 4 3 4 4 4 4 4 4 4 4 5 4 3 3 3 4 3 3 3 4 4 3 4 3 3 3 3 3 3 2 2 2 2 2 2 1 1 1 1 1
3 4 3 3 3 3 3 3 3 3 3 4 4 3 3 3 3 3 3 3 3 3 3 2 2 2 2 2 2 2 2 2 2 2 1 1 1 1 1 1 1 1 1 1
2 2 2 2 2 2 2 2 2 2 2 2 2 2 2 2 2 2 2 1 1 1 1 1 1 1 1 1 1 1 1 1 0 0 -0 -0 -0 0 0 0 0 1 0 0
1 1 0 -0 0 0 1 1 1 1 2 1 1 1 1 1 1 1 1 -0 0 -0 -0 0 0 0 0 0 0 0 0 0 -0 -0 -1 -1 -0 -0 0 -0 -0 -0 -0 -0
1 -1 -1 -1 -1 -2 -1 -0 0 1 1 0 0 -0 -0 -1 -1 -1 -1 -1 -0 -0 -1 -1 -1 -1 -1 -1 -1 -1 -1 -1 -2 -2 -2 -2 -1 -1 -1 -1 -0 -0 -1 -1
-0 -2 -2 -2 -2 -2 -1 -1 -0 -0 -0 -0 -1 -1 -1 -1 -2 -3 -2 -1 -1 -1 -2 -2 -2 -2 -2 -2 -2 -2 -2 -2 -2 -2 -2 -2 -2 -2 -2 -2 -2 -2 -1 -1
-1 -2 -2 -3 -3 -3 -3 -2 -1 -1 -1 -2 -1 -2 -2 -3 -3 -4 -4 -2 -2 -3 -3 -3 -2 -2 -2 -2 -2 -2 -2 -2 -2 -2 -2 -2 -3 -3 -3 -3 -3 -3 -2 -2
-2 -3 -3 -3 -3 -3 -3 -3 -2 -2 -2 -2 -3 -3 -4 -4 -5 -4 -4 -2 -3 -3 -3 -3 -3 -3 -3 -3 -3 -3 -3 -3 -3 -3 -3 -3 -3 -3 -4 -4 -4 -4 -4 -4
-3 -3 -3 -3 -4 -3 -3 -3 -3 -3 -3 -3 -4 -4 -5 -5 -5 -4 -4 -4 -4 -4 -5 -3 -3 -3 -3 -3 -3 -4 -4 -3 -3 -4 -3 -3 -3 -4 -3 -3 -3 -4 -4 -7
-3 -3 -3 -3 -4 -4 -4 -3 -3 -3 -3 -4 -4 -4 -4 -4 -4 -4 -4 -3 -3 -4 -4 -4 -4 -4 -4 -4 -4 -4 -4 -4 -4 -4 -4 -4 -4 -4 -4 -4 -4 -4 -5 -5
-1 -3 -3 -3 -4 -3 -4 -4 -4 -3 -3 -3 -3 -4 -4 -3 -3 -3 -3 -3 -3 -3 -4 -4 -4 -4 -4 -4 -4 -4 -4 -4 -4 -5 -5 -5 -5 -5 -5 -5 -5 -6 -6 -6
-1 -1 -2 -4 -4 -4 -4 -3 -3 -3 -3 -3 -3 -3 -3 -3 -3 -4 -4 -4 -4 -3 -3 -3 -4 -4 -4 -4 -4 -5 -5 -5 -5 -5 -6 -6 -6 -6 -6 -7 -7 -7 -7 -7
-1 -2 -3 -3 -4 -4 -5 -4 -4 -4 -4 -3 -3 -3 -3 -3 -3 -4 -4 -4 -4 -4 -4 -4 -4 -5 -5 -5 -5 -5 -5 -5 -6 -6 -6 -6 -7 -7 -7 -7 -7 -7 -7 -7
-1 -1 -2 -3 -3 -4 -4 -5 -5 -4 -4 -4 -3 -3 -4 -4 -4 -4 -4 -4 -4 -4 -4 -5 -5 -5 -5 -5 -5 -6 -6 -6 -6 -7 -7 -7 -7 -7 -7 -7 -7 -7 -7 -8
-1 -1 -1 -1 -2 -2 -3 -3 -3 -3 -4 -4 -3 -3 -4 -4 -4 -4 -4 -5 -5 -5 -5 -5 -5 -5 -5 -6 -6 -6 -7 -7 -7 -7 -8 -8 -8 -8 -8 -8 -8 -8 -8 -8

GFSNGP_850_temp_108.txt.gz
Temp
6 6 5 5 5 6 1 4 3 6 7 7 7 6 6 8 9 10 10 10 11 11 12 12 12 12 13 13 13 12 12 13 12 12 12 11 11 11 10 10 10 11 10 10
4 5 6 5 5 6 6 6 6 6 7 8 8 8 7 7 8 9 9 9 10 10 10 11 10 10 11 11 11 11 11 11 11 11 11 10 9 10 10 10 10 10 9 9
4 4 6 4 5 6 7 7 6 8 8 8 7 6 6 7 8 7 8 9 9 9 9 9 10 10 10 10 10 10 10 10 10 10 9 9 9 9 9 9 9 9 8 8
3 5 5 5 6 6 7 6 7 7 7 7 7 6 6 6 7 8 8 8 8 9 9 9 9 9 9 9 9 9 9 9 9 8 8 8 8 8 8 8 8 8 7 7
4 3 6 6 6 6 6 6 6 7 7 7 7 6 5 6 6 7 7 7 8 9 9 9 8 8 8 8 8 8 8 8 8 7 7 7 7 7 7 7 7 7 7 7
2 3 5 6 6 6 6 6 7 7 7 6 6 5 4 5 6 6 7 7 8 8 9 8 8 8 8 8 8 8 7 7 7 7 6 7 7 6 6 6 6 6 6 6
3 2 4 5 5 6 6 5 6 7 7 6 5 5 4 4 5 5 6 6 7 8 8 8 8 7 7 7 7 7 6 6 7 7 6 6 6 6 6 6 6 6 6 6
2 3 3 4 6 7 5 6 6 6 6 6 6 5 5 5 5 5 5 5 6 6 7 7 7 7 7 6 6 6 6 6 6 5 6 6 6 6 6 6 6 6 5 6
3 3 3 3 4 4 5 5 6 6 6 6 6 5 5 5 5 5 5 5 5 5 6 7 7 7 6 6 6 6 6 6 6 6 6 5 5 5 6 6 5 5 6 6
3 3 3 4 4 4 5 5 5 5 6 6 6 5 5 5 5 5 4 4 4 5 6 6 6 6 6 6 6 6 5 5 5 5 5 5 5 5 5 4 4 4 4 4
2 3 3 3 4 4 5 5 5 5 5 5 5 6 5 5 4 4 4 4 4 4 4 5 5 5 5 5 5 5 5 5 4 4 4 4 4 4 4 4 4 4 3 3
2 3 4 3 3 4 4 5 5 5 5 5 5 5 4 5 4 4 3 4 4 4 4 4 4 4 4 4 4 4 4 4 4 3 3 3 4 3 3 3 3 3 3 3
3 4 4 3 3 3 3 4 4 4 4 4 4 4 4 4 4 3 3 3 3 3 3 3 3 3 3 3 3 3 3 3 3 3 3 2 2 2 2 2 2 1 1 1
3 3 3 3 3 3 3 3 3 3 3 3 3 3 3 3 3 3 2 2 2 2 2 2 2 2 1 1 1 1 1 1 2 1 1 1 1 1 1 1 1 1 1 1
3 3 3 2 2 1 1 1 2 2 2 2 2 2 2 2 2 2 2 2 1 1 0 1 0 0 0 0 0 0 1 1 1 1 0 0 -0 -1 -1 -0 1 1 1 0
2 2 2 1 1 0 0 1 1 1 1 2 2 2 1 1 1 0 -0 0 0 0 -0 -0 0 -0 -0 -1 -1 -1 -0 -0 -0 -0 -1 -1 -1 -2 -1 -1 -1 -1 -0 -0
2 1 0 -0 -1 -1 -2 -1 -1 -0 0 0 0 0 0 0 -0 -0 -1 -1 -2 -2 -2 -1 -1 -1 -1 -1 -1 -1 -1 -1 -1 -1 -2 -2 -2 -2 -2 -2 -1 -1 -1 -1
2 1 -0 -2 -2 -2 -2 -2 -1 -1 -1 -1 -1 -1 -1 -1 -1 -1 -2 -3 -2 -2 -2 -2 -2 -2 -2 -2 -2 -2 -2 -2 -2 -2 -2 -2 -3 -2 -2 -2 -2 -2 -2 -2
1 -0 -2 -2 -3 -3 -3 -2 -2 -2 -2 -2 -2 -2 -1 -2 -2 -3 -4 -4 -3 -3 -3 -3 -3 -3 -3 -3 -3 -3 -3 -3 -3 -3 -3 -3 -3 -3 -3 -4 -3 -3 -3 -3
0 -0 -2 -3 -3 -3 -3 -3 -3 -3 -2 -2 -2 -2 -3 -3 -4 -4 -4 -4 -4 -4 -4 -4 -4 -3 -3 -3 -3 -4 -4 -4 -4 -4 -4 -4 -4 -4 -4 -4 -4 -4 -5 -5
0 -1 -3 -3 -4 -4 -3 -3 -3 -3 -3 -3 -3 -3 -4 -4 -4 -4 -4 -4 -4 -4 -4 -4 -4 -4 -3 -4 -4 -4 -4 -4 -4 -4 -4 -5 -5 -5 -4 -4 -4 -4 -5 -5
1 -0 -3 -4 -4 -4 -4 -4 -3 -3 -3 -3 -3 -3 -3 -3 -4 -4 -3 -3 -3 -3 -3 -4 -4 -4 -4 -4 -4 -4 -4 -4 -5 -5 -5 -5 -5 -5 -5 -5 -5 -5 -5 -5
1 0 -1 -4 -4 -4 -4 -4 -4 -4 -3 -3 -3 -3 -3 -3 -4 -3 -3 -4 -4 -4 -4 -4 -4 -4 -4 -4 -4 -4 -5 -5 -5 -5 -5 -6 -6 -6 -6 -6 -6 -7 -6 -6
0 -0 -1 -2 -5 -4 -4 -4 -4 -3 -3 -3 -2 -3 -3 -3 -3 -3 -4 -3 -3 -4 -4 -4 -4 -4 -5 -4 -5 -5 -5 -5 -6 -6 -6 -6 -7 -7 -7 -7 -7 -7 -7 -7
-0 -1 -2 -2 -3 -3 -3 -4 -4 -4 -4 -4 -4 -4 -3 -4 -3 -3 -4 -4 -4 -4 -4 -5 -5 -5 -5 -5 -5 -5 -5 -6 -6 -6 -6 -6 -7 -7 -7 -7 -7 -7 -7 -7
-0 -1 -2 -2 -2 -3 -3 -4 -4 -4 -5 -5 -4 -4 -4 -4 -4 -4 -4 -4 -4 -4 -4 -5 -5 -5 -5 -5 -6 -6 -6 -6 -7 -7 -7 -7 -7 -7 -8 -8 -8 -8 -8 -7
-0 -1 -1 -1 -1 -2 -2 -2 -3 -3 -3 -4 -3 -3 -4 -4 -4 -4 -4 -4 -5 -5 -5 -5 -5 -6 -6 -6 -6 -6 -7 -7 -7 -7 -7 -7 -8 -8 -8 -8 -8 -8 -8 -8

GFSNGP_850_temp_111.txt.gz
Temp
6 6 6 5 5 5 4 4 5 6 6 6 6 5 5 6 8 9 8 8 9 9 10 11 12 12 12 13 13 13 13 13 13 13 12 12 11 11 11 11 11 10 11 11
4 5 5 5 5 5 6 6 5 6 6 7 6 7 6 6 7 7 8 8 8 8 9 9 10 11 11 12 12 11 12 12 12 12 12 11 11 11 10 10 10 10 10 9
4 4 6 4 5 6 6 5 7 6 7 6 5 5 4 6 6 6 7 8 8 8 8 8 8 9 10 10 11 11 11 10 10 10 10 10 10 10 9 9 9 9 8 8
3 4 4 5 5 6 6 5 5 6 6 6 5 5 5 5 6 6 7 8 8 8 8 8 8 8 9 9 9 9 10 10 10 10 10 9 9 8 8 8 8 7 8 8
4 3 5 6 5 6 7 5 5 6 5 6 6 6 5 5 5 5 6 6 8 9 9 8 8 8 8 8 8 8 8 8 8 8 8 8 8 8 7 7 7 7 7 7
3 3 5 5 5 6 6 5 6 6 5 5 6 5 4 5 6 6 5 6 7 8 9 8 8 8 7 7 7 7 7 7 7 7 7 7 7 7 7 6 6 6 6 6
3 2 4 5 4 5 5 5 5 6 6 6 4 5 5 5 5 5 6 6 6 7 8 8 8 7 7 6 6 6 6 6 6 6 6 6 6 6 6 6 6 6 6 6
2 3 4 4 4 6 4 5 5 6 6 5 5 5 5 5 5 5 5 5 6 6 6 7 7 7 7 6 6 6 6 7 6 6 6 6 6 6 6 5 5 6 6 6
3 4 3 3 4 4 5 5 5 5 5 6 5 5 5 5 5 5 5 5 5 5 5 6 7 6 6 6 6 6 6 5 5 5 5 5 5 5 5 5 5 5 5 5
3 3 3 3 4 4 5 5 5 5 5 5 5 5 5 6 5 4 4 5 5 5 5 5 5 5 5 5 5 5 5 5 5 5 5 5 5 5 4 4 4 4 4 4
1 2 3 3 4 4 4 4 4 5 5 5 5 5 5 4 4 4 4 4 4 4 4 4 4 4 4 4 4 3 3 3 3 3 3 3 3 3 4 4 3 3 3 3
2 3 3 4 4 4 4 4 4 4 4 4 5 4 4 4 4 4 3 3 3 3 3 3 3 3 3 3 3 3 3 3 3 2 2 3 3 2 3 2 2 2 2 2
4 4 4 4 4 3 3 4 4 4 4 4 4 4 4 4 3 3 3 3 3 3 3 2 2 2 3 3 3 2 2 2 2 2 2 1 1 1 1 1 1 1 2 1
4 4 2 3 3 3 3 3 3 3 3 3 3 3 3 3 3 2 2 2 2 1 1 1 1 0 1 1 1 1 1 1 1 1 1 1 1 1 0 0 0 0 0 0
3 3 4 3 3 2 2 2 2 2 2 2 2 2 2 2 2 2 2 1 1 0 0 -0 -1 -1 -1 -0 -0 0 0 0 0 0 0 0 0 0 -1 -1 -1 -1 -0 -0
3 3 3 2 2 1 1 1 1 1 1 1 2 2 2 1 1 1 0 0 0 -0 -1 -1 -1 -2 -2 -2 -1 -1 -1 -1 -1 -1 -0 -0 -1 -1 -1 -2 -2 -1 -1 -1
2 1 2 1 1 -0 -1 -2 -1 -1 -0 0 0 0 0 0 -0 -0 -1 -1 -1 -1 -2 -2 -3 -3 -2 -2 -2 -2 -2 -2 -2 -2 -2 -2 -3 -3 -2 -2 -2 -2 -2 -2
4 3 3 2 1 -1 -2 -2 -2 -2 -2 -1 -1 -1 -1 -1 -1 -1 -2 -2 -2 -2 -3 -3 -3 -3 -3 -2 -3 -3 -3 -3 -3 -3 -3 -3 -3 -3 -3 -3 -3 -3 -3 -3
3 3 2 1 -1 -2 -2 -2 -2 -2 -2 -2 -2 -1 -1 -1 -1 -2 -2 -3 -3 -3 -3 -3 -3 -4 -3 -3 -3 -3 -3 -3 -4 -4 -4 -4 -4 -4 -4 -4 -4 -4 -4 -4
2 1 1 -0 -2 -3 -3 -3 -3 -3 -3 -3 -2 -2 -2 -2 -3 -3 -3 -4 -4 -4 -4 -4 -4 -4 -4 -5 -4 -4 -4 -4 -4 -4 -5 -4 -4 -4 -4 -4 -4 -5 -5 -5
1 1 0 -0 -2 -4 -4 -4 -3 -4 -3 -3 -3 -2 -3 -3 -3 -4 -4 -3 -4 -4 -4 -4 -4 -4 -4 -4 -5 -5 -4 -4 -5 -5 -5 -5 -5 -5 -5 -5 -5 -5 -5 -5
1 1 0 -1 -2 -4 -4 -4 -4 -4 -3 -3 -3 -3 -3 -3 -3 -3 -3 -3 -3 -3 -3 -3 -4 -4 -4 -5 -5 -5 -5 -5 -5 -5 -5 -5 -5 -5 -6 -6 -6 -6 -6 -6
1 1 -0 -1 -2 -3 -4 -4 -4 -4 -4 -3 -3 -3 -3 -3 -4 -3 -3 -4 -4 -4 -4 -4 -4 -4 -5 -5 -5 -5 -5 -5 -5 -5 -5 -6 -6 -6 -6 -6 -7 -7 -7 -7
1 0 -0 -1 -2 -2 -3 -3 -4 -4 -4 -3 -3 -3 -3 -3 -3 -4 -4 -4 -4 -4 -4 -4 -4 -5 -5 -5 -5 -5 -5 -5 -6 -6 -6 -6 -7 -7 -7 -7 -7 -7 -7 -7
1 -0 -1 -1 -1 -1 -2 -3 -4 -4 -4 -4 -4 -4 -4 -4 -4 -3 -4 -4 -4 -4 -4 -4 -4 -5 -5 -5 -5 -5 -6 -6 -6 -6 -6 -7 -7 -7 -8 -8 -8 -8 -8 -8
0 0 -1 -1 -1 -1 -1 -2 -2 -3 -4 -4 -4 -5 -5 -5 -5 -4 -4 -4 -4 -5 -5 -5 -5 -5 -5 -6 -6 -6 -6 -7 -7 -7 -7 -7 -8 -8 -8 -8 -8 -8 -7 -8
0 -0 -0 -0 -0 -1 -1 -1 -1 -1 -3 -3 -3 -3 -4 -4 -4 -4 -4 -4 -4 -5 -5 -5 -5 -6 -6 -6 -6 -7 -7 -7 -7 -7 -7 -8 -8 -8 -8 -8 -8 -8 -8 -8

GFSNGP_850_temp_114.txt.gz
Temp
8 8 7 8 8 9 6 8 9 9 9 9 9 9 8 8 7 7 6 6 7 8 10 10 10 10 12 13 14 14 14 14 13 13 13 12 11 10 11 10 10 11 10 10
7 8 9 9 8 10 9 9 10 10 9 9 8 9 8 7 7 6 6 5 7 7 8 9 9 10 10 11 11 12 13 13 13 12 12 11 10 10 10 10 10 10 10 10
7 7 8 9 7 8 9 8 10 10 9 10 9 8 6 6 6 5 5 5 7 7 8 8 8 9 10 10 10 11 11 11 11 10 10 10 10 10 10 10 10 10 10 10
8 8 8 8 8 7 8 8 9 9 8 8 7 6 5 5 5 5 4 5 6 7 8 8 8 9 9 9 9 9 9 10 10 10 9 10 9 9 9 9 9 9 9 8
9 8 7 8 7 7 8 8 8 8 8 8 6 7 6 5 4 4 5 6 6 7 8 8 8 8 8 8 9 9 9 8 8 9 9 8 8 8 8 8 8 8 7 7
8 8 8 8 7 6 8 8 8 8 8 8 8 10 8 4 5 5 5 5 6 7 7 7 7 8 8 8 7 7 7 8 7 7 7 7 7 7 7 7 7 7 7 7
8 8 8 7 7 6 8 8 7 7 7 7 8 7 5 5 5 5 5 6 5 6 6 6 6 6 6 6 7 7 7 6 6 6 6 6 6 6 6 6 6 6 5 5
7 7 7 5 6 8 7 6 6 6 5 5 5 4 4 5 5 5 5 5 5 5 5 5 5 5 5 5 6 6 6 6 6 6 6 6 5 6 6 5 6 6 6 6
8 8 4 3 5 4 5 6 5 5 5 5 5 5 5 5 5 4 4 4 5 5 5 5 5 5 5 5 5 5 4 4 4 4 5 5 5 5 5 5 5 5 5 5
6 5 5 4 3 4 4 4 5 5 5 5 5 5 5 6 5 5 5 4 4 4 4 4 5 5 5 5 5 4 4 4 4 4 3 3 3 3 3 4 4 4 4 3
5 4 4 4 3 4 4 4 5 5 5 5 5 5 5 5 4 4 4 4 4 4 4 4 3 3 3 3 3 4 3 4 3 3 3 3 2 2 2 2 2 3 3 3
8 7 7 6 4 4 4 4 4 4 4 5 5 5 5 5 4 4 4 4 3 3 3 3 3 3 3 2 2 2 3 3 2 2 2 2 2 2 2 2 2 2 2 2
7 4 5 4 4 4 4 4 4 4 4 4 4 4 4 4 4 5 4 3 3 2 2 2 2 2 2 2 2 1 1 1 1 1 1 1 1 2 2 1 1 1 1 1
5 5 3 3 4 4 4 4 4 4 4 3 3 3 3 3 3 3 2 2 2 2 2 1 1 1 1 1 1 0 -0 0 0 0 0 0 0 1 1 0 0 0 0 0
4 5 5 5 4 4 4 3 3 2 2 2 2 2 2 2 2 2 2 1 1 1 1 1 1 0 -0 -1 -1 -1 -2 -1 -1 -1 -1 -1 -1 -1 -1 -1 -1 -1 -1 -1
3 3 4 4 4 3 3 2 2 1 1 1 1 1 1 2 1 1 0 0 -0 -0 -0 -0 -1 -1 -1 -2 -2 -1 -0 -2 -2 -1 -2 -1 -2 -2 -2 -2 -2 -2 -2 -2
2 1 2 2 3 3 2 1 0 -0 -1 -0 -0 -0 -0 -0 -0 -0 -1 -1 -1 -1 -1 -2 -2 -2 -2 -3 -3 -3 -2 -2 -2 -2 -2 -2 -2 -3 -3 -3 -3 -2 -2 -2
5 5 4 4 4 3 2 0 -1 -1 -2 -2 -2 -1 -1 -1 -1 -1 -1 -2 -2 -2 -2 -3 -3 -3 -3 -3 -3 -3 -3 -3 -3 -3 -3 -3 -3 -3 -3 -3 -4 -3 -3 -3
3 4 4 3 3 2 1 -0 -1 -2 -2 -2 -2 -2 -2 -2 -2 -1 -2 -2 -3 -3 -3 -3 -4 -4 -4 -4 -4 -4 -4 -4 -4 -4 -3 -4 -4 -4 -4 -4 -4 -4 -5 -5
3 3 3 3 2 2 1 -0 -2 -3 -3 -3 -3 -3 -2 -2 -2 -3 -3 -3 -3 -3 -4 -4 -4 -4 -4 -4 -5 -5 -4 -4 -4 -5 -5 -5 -5 -5 -5 -5 -5 -5 -5 -5
3 3 2 2 2 1 -0 -1 -3 -4 -3 -4 -3 -3 -3 -3 -3 -3 -3 -3 -3 -3 -3 -3 -4 -4 -4 -4 -4 -4 -4 -5 -5 -5 -5 -5 -5 -5 -5 -6 -6 -6 -6 -6
2 2 2 2 1 0 -1 -2 -4 -4 -4 -4 -3 -3 -3 -3 -3 -3 -3 -3 -3 -3 -3 -3 -3 -4 -4 -4 -4 -5 -5 -5 -5 -5 -5 -5 -6 -6 -6 -6 -6 -6 -6 -6
2 2 1 1 1 -1 -2 -3 -4 -4 -4 -4 -4 -3 -3 -3 -3 -3 -3 -3 -3 -3 -3 -3 -4 -4 -4 -5 -5 -5 -5 -5 -5 -5 -6 -6 -6 -7 -7 -6 -7 -7 -7 -7
2 1 1 0 -1 -1 -1 -2 -3 -4 -4 -4 -4 -3 -3 -3 -3 -3 -3 -3 -4 -4 -4 -4 -4 -4 -5 -5 -5 -5 -5 -6 -6 -6 -6 -6 -7 -7 -8 -8 -8 -8 -8 -8
2 1 0 0 -0 -0 -1 -2 -2 -3 -3 -3 -4 -4 -4 -4 -4 -4 -4 -4 -4 -4 -4 -4 -4 -5 -5 -5 -5 -6 -6 -6 -6 -7 -7 -7 -8 -8 -8 -8 -8 -8 -8 -8
1 1 0 -0 -0 -1 -1 -1 -1 -2 -2 -2 -3 -3 -4 -4 -5 -5 -4 -5 -4 -4 -4 -5 -5 -5 -5 -5 -6 -6 -6 -6 -6 -7 -7 -7 -8 -8 -8 -8 -8 -8 -8 -8
1 0 0 0 0 -0 -1 -1 -1 -1 -2 -2 -2 -3 -3 -3 -4 -4 -4 -4 -4 -4 -5 -5 -5 -5 -5 -6 -6 -6 -7 -7 -7 -7 -7 -8 -8 -8 -8 -8 -8 -8 -8 -8

GFSNGP_850_temp_117.txt.gz
Temp
10 9 10 10 10 11 9 11 9 9 9 9 10 10 9 9 8 7 6 5 8 7 6 8 9 10 10 11 12 13 13 13 13 12 12 12 11 11 10 10 10 12 11 11
8 10 11 9 10 10 11 11 11 10 9 10 10 9 9 8 7 7 6 6 6 6 8 8 10 10 9 9 9 10 12 13 13 12 11 11 11 10 10 10 11 11 11 11
9 10 10 10 8 9 10 10 11 9 10 11 9 8 7 8 7 6 6 6 6 5 6 7 8 9 10 9 9 10 11 11 11 11 11 10 10 10 9 9 10 10 10 10
10 11 10 9 9 9 9 9 10 10 10 9 9 7 6 6 6 5 5 5 5 5 6 6 7 8 8 9 9 9 9 9 9 10 10 10 9 9 9 10 10 9 9 9
10 10 9 9 9 9 8 8 10 10 10 10 8 10 6 5 5 4 4 4 4 5 6 7 7 7 7 8 8 8 9 9 8 9 9 9 9 9 9 9 9 8 8 8
10 9 9 10 9 8 10 7 9 9 9 10 11 10 7 5 4 4 3 3 4 4 4 5 6 6 7 7 7 7 7 7 8 8 8 8 8 8 8 8 8 8 7 7
10 9 9 9 9 8 8 8 8 8 8 9 8 7 5 4 4 4 4 5 3 5 6 5 5 4 5 6 6 6 6 6 6 7 7 7 7 7 7 7 7 7 7 6
10 10 8 8 8 9 9 8 8 8 7 7 6 5 5 4 5 5 5 5 5 5 5 5 6 6 5 5 4 5 5 5 5 5 5 5 5 5 6 5 5 5 5 5
9 8 7 6 7 6 7 8 7 7 6 6 6 5 5 4 5 5 5 5 4 4 5 5 5 5 6 6 5 5 4 4 4 5 5 4 4 4 4 4 4 5 5 5
8 7 7 6 5 5 6 6 5 5 5 5 6 5 5 5 5 5 5 5 4 4 4 4 4 4 4 4 5 5 5 4 3 3 3 4 4 4 3 3 3 2 4 4
8 7 6 6 6 5 5 5 5 5 5 5 5 5 5 4 4 4 4 4 4 4 4 4 3 3 3 3 3 3 3 3 3 3 3 3 2 2 2 2 2 2 2 2
10 10 10 9 6 5 5 5 5 4 4 5 5 5 4 4 4 4 4 4 3 3 3 2 2 2 2 2 2 2 2 3 2 2 2 2 2 1 1 1 0 1 1 1
9 8 8 7 5 5 4 5 5 5 5 4 4 4 4 4 4 4 4 3 3 2 2 1 1 0 0 0 1 1 1 1 1 1 1 1 1 1 1 1 0 0 0 -0
6 5 4 4 4 5 5 5 5 4 4 4 4 4 3 3 3 3 2 2 2 2 2 1 1 1 1 2 1 0 -0 -0 -0 0 1 1 0 -0 -0 -0 -0 -0 -0 -0
5 5 6 5 4 5 4 4 4 3 3 3 3 3 2 2 2 2 2 2 2 2 1 1 0 1 1 0 0 -0 -1 -1 -1 -1 -1 -1 -0 -0 -1 -1 -1 -1 -1 -1
4 4 5 5 5 5 4 4 3 2 2 1 1 1 1 1 1 1 1 1 1 0 0 0 0 -0 -0 -1 -1 -2 -2 -2 -2 -2 -2 -2 -3 -2 -2 -3 -3 -3 -2 -2
2 2 3 3 4 4 4 3 2 1 1 1 0 0 0 0 -0 -0 -0 -0 -1 -1 -0 -1 -1 -1 -2 -2 -2 -2 -2 -2 -2 -2 -2 -2 -3 -3 -3 -3 -4 -4 -3 -3
5 5 5 4 5 4 4 3 2 1 -0 -1 -1 -1 -1 -1 -1 -2 -1 -1 -1 -1 -1 -2 -2 -3 -3 -3 -3 -3 -3 -3 -3 -3 -3 -3 -3 -3 -3 -3 -3 -3 -4 -4
4 4 4 4 5 4 3 2 1 0 -1 -2 -2 -2 -1 -1 -2 -1 -1 -1 -1 -2 -2 -2 -3 -3 -3 -3 -4 -4 -4 -4 -4 -4 -4 -4 -4 -4 -4 -4 -4 -4 -4 -4
3 4 4 4 4 3 3 2 0 -1 -1 -2 -2 -2 -3 -3 -2 -2 -2 -2 -2 -2 -2 -3 -3 -3 -3 -3 -4 -4 -4 -4 -4 -4 -5 -4 -4 -4 -5 -5 -5 -5 -5 -5
3 4 4 3 3 3 2 1 1 -1 -2 -3 -3 -3 -3 -3 -3 -2 -2 -2 -2 -3 -3 -3 -3 -3 -3 -4 -4 -4 -4 -5 -5 -5 -5 -5 -5 -5 -5 -5 -5 -6 -6 -6
3 3 3 3 3 2 2 1 -0 -2 -3 -4 -4 -4 -3 -3 -3 -3 -3 -3 -3 -3 -3 -3 -3 -3 -4 -4 -4 -4 -5 -5 -5 -5 -5 -5 -6 -6 -6 -6 -6 -6 -7 -7
3 3 2 2 2 1 1 0 -1 -2 -3 -4 -4 -4 -4 -3 -4 -3 -3 -3 -3 -3 -3 -3 -4 -4 -4 -4 -4 -5 -5 -5 -5 -5 -6 -6 -6 -6 -7 -7 -7 -7 -7 -7
2 2 2 2 1 1 1 -0 -1 -2 -2 -3 -4 -4 -4 -3 -3 -3 -3 -3 -4 -4 -4 -4 -4 -4 -4 -4 -5 -5 -5 -5 -6 -6 -6 -6 -6 -7 -7 -8 -8 -8 -8 -8
2 2 2 2 1 1 0 -1 -1 -1 -2 -2 -2 -3 -3 -3 -4 -4 -4 -5 -5 -4 -4 -4 -4 -5 -5 -5 -5 -5 -6 -6 -6 -7 -7 -7 -7 -7 -8 -8 -8 -8 -8 -8
2 2 2 1 1 0 -0 -1 -1 -1 -2 -2 -2 -2 -2 -3 -3 -4 -4 -4 -5 -5 -4 -5 -5 -5 -5 -5 -6 -6 -6 -6 -7 -7 -7 -7 -8 -8 -8 -8 -8 -9 -8 -8
2 1 1 1 1 -0 -0 -1 -1 -1 -1 -2 -2 -2 -2 -3 -3 -4 -4 -4 -4 -4 -4 -5 -5 -5 -5 -6 -6 -6 -6 -7 -7 -7 -7 -8 -8 -8 -8 -8 -8 -8 -8 -8

GFSNGP_850_temp_120.txt.gz
Temp
10 10 9 8 9 9 8 8 6 8 8 7 7 7 7 7 6 5 5 5 5 6 7 8 9 10 10 11 11 11 11 11 11 11 11 10 10 9 10 10 10 10 10 11
8 10 9 7 7 8 7 7 9 8 7 8 7 7 6 6 6 5 5 5 5 5 6 7 8 9 9 10 12 12 11 10 10 10 10 10 9 10 10 11 11 10 10 10
7 10 9 6 6 8 9 9 9 7 8 7 6 6 5 5 5 4 4 5 5 5 5 6 6 7 9 10 10 11 11 10 9 10 9 10 9 9 10 10 10 10 9 10
6 9 7 8 9 9 9 9 9 9 8 7 5 5 5 4 4 4 4 4 5 6 6 7 6 7 7 8 8 8 8 8 8 9 9 9 9 9 9 9 9 9 9 9
6 6 7 8 8 9 8 7 8 8 8 8 6 7 4 4 4 4 4 4 4 5 6 6 7 6 7 7 7 7 7 8 8 8 8 8 9 8 8 8 8 8 8 9
7 7 7 8 8 8 8 6 8 8 7 7 8 4 3 4 4 4 5 5 6 6 6 7 6 6 7 7 7 7 7 7 7 7 7 8 7 7 7 7 7 7 8 8
7 6 7 8 8 8 8 7 8 8 7 6 4 5 4 4 4 4 5 5 5 6 6 6 6 7 7 7 7 6 6 6 6 6 7 7 7 6 7 7 7 7 7 7
7 8 5 8 8 7 7 8 8 7 7 6 5 5 5 4 3 4 4 5 5 6 6 6 6 6 6 7 6 6 6 6 6 6 6 6 5 6 6 6 6 6 6 6
6 6 6 7 6 7 8 7 7 6 6 6 5 5 4 4 4 3 3 4 4 5 5 5 5 5 5 5 5 5 5 5 5 5 5 5 4 4 4 4 4 4 4 4
6 6 6 6 6 6 7 6 6 6 6 6 5 5 4 4 4 5 4 3 2 3 4 4 5 5 5 5 5 5 4 4 4 3 4 4 4 4 3 3 3 3 3 3
6 6 6 6 6 6 6 6 5 5 5 5 5 5 5 4 4 4 4 4 4 4 3 3 3 3 4 4 4 4 3 3 3 3 4 4 3 3 2 2 2 2 1 2
5 7 7 7 6 6 6 6 5 5 5 5 5 5 4 4 4 4 4 4 3 3 3 3 2 3 3 2 2 2 2 3 3 3 2 2 2 2 2 2 1 1 0 0
9 9 8 8 6 6 5 6 5 5 5 4 4 4 4 4 4 3 3 3 3 2 2 1 0 0 1 1 2 2 1 1 1 1 2 2 1 1 1 1 1 1 -0 -0
8 8 6 6 5 5 5 5 5 5 5 4 4 4 3 3 3 3 2 2 2 2 2 1 1 1 0 0 0 0 0 0 -0 -0 -0 -0 -0 0 0 -0 -1 -0 -0 -0
7 7 7 6 6 5 5 5 5 4 4 4 3 3 3 2 2 2 1 1 1 1 1 1 0 -0 -1 -1 -1 -1 -1 -1 -1 -2 -2 -2 -2 -1 -1 -1 -1 -2 -2 -2
5 6 6 6 5 5 5 5 4 4 3 3 2 2 2 2 1 1 1 1 1 0 0 -0 -0 -0 -1 -1 -2 -2 -2 -2 -2 -2 -2 -2 -2 -2 -2 -2 -2 -2 -2 -3
4 4 4 4 5 5 5 4 4 3 3 2 1 1 0 -0 -0 -1 -1 -1 -1 -1 -1 -1 -1 -1 -2 -2 -2 -2 -2 -3 -3 -3 -3 -3 -3 -3 -3 -3 -3 -2 -2 -3
6 6 6 6 5 5 4 4 4 3 3 2 1 -0 -2 -2 -1 -1 -2 -2 -1 -1 -1 -1 -2 -2 -2 -2 -3 -3 -3 -3 -4 -4 -4 -4 -4 -4 -4 -4 -4 -4 -4 -3
4 6 5 5 5 4 4 4 4 3 2 2 0 -1 -2 -2 -2 -2 -2 -2 -1 -1 -2 -2 -2 -2 -3 -3 -3 -3 -3 -4 -4 -4 -4 -4 -4 -4 -5 -5 -5 -5 -5 -5
4 4 5 4 4 4 4 4 4 3 2 1 -0 -1 -2 -2 -3 -3 -2 -2 -2 -2 -2 -2 -2 -3 -3 -3 -3 -3 -3 -4 -4 -4 -4 -4 -5 -5 -5 -5 -5 -5 -6 -6
4 4 5 5 4 4 4 4 3 2 1 0 -1 -2 -2 -3 -4 -3 -3 -2 -2 -3 -3 -3 -3 -3 -3 -3 -3 -3 -3 -4 -4 -4 -5 -5 -5 -5 -5 -5 -6 -6 -6 -7
4 4 4 4 4 4 3 3 2 2 1 0 -0 -2 -4 -4 -3 -3 -3 -2 -3 -3 -3 -3 -3 -3 -3 -3 -3 -4 -4 -4 -5 -5 -5 -5 -5 -5 -6 -6 -6 -7 -7 -7
4 4 4 4 4 3 3 2 2 1 1 -0 -1 -2 -3 -3 -3 -3 -2 -3 -3 -3 -3 -3 -3 -3 -4 -4 -4 -4 -4 -5 -5 -5 -6 -6 -6 -6 -6 -7 -7 -7 -7 -8
3 4 4 3 3 3 2 2 1 1 0 -1 -1 -2 -2 -2 -2 -3 -3 -3 -3 -4 -4 -4 -4 -4 -4 -4 -4 -5 -5 -5 -5 -6 -6 -6 -6 -7 -7 -7 -7 -8 -8 -9
3 3 3 3 3 2 2 1 1 0 -0 -1 -1 -1 -2 -2 -2 -2 -3 -3 -4 -5 -5 -6 -5 -4 -4 -5 -5 -5 -5 -6 -6 -6 -6 -7 -7 -7 -7 -8 -8 -8 -9 -9
3 3 3 3 2 1 1 1 0 -0 -0 -0 -1 -1 -1 -2 -2 -2 -3 -3 -4 -4 -4 -5 -5 -5 -5 -5 -5 -6 -6 -6 -6 -7 -7 -7 -7 -7 -8 -8 -8 -9 -9 -9
2 2 2 2 1 1 0 0 -0 -0 -1 -1 -1 -2 -2 -2 -2 -3 -3 -4 -4 -4 -4 -5 -5 -5 -5 -6 -6 -6 -6 -7 -7 -7 -7 -8 -8 -8 -8 -8 -8 -9 -9 -9

GFSNGP_850_temp_126.txt.gz
Temp
6 7 6 6 6 6 5 5 5 5 5 4 3 3 3 2 2 4 4 4 5 6 8 9 10 10 10 10 10 9 9 9 9 9 9 9 10 10 10 10 10 11 11 11
6 6 6 5 5 6 6 6 6 6 5 5 4 3 3 2 3 3 4 4 4 6 7 8 9 9 9 9 10 9 9 9 9 10 10 10 10 10 10 10 10 10 10 10
6 6 7 5 5 5 6 6 6 5 5 4 4 3 2 2 3 3 3 3 3 4 5 7 8 8 8 8 9 9 9 9 9 9 9 9 9 9 9 9 9 10 10 10
4 5 5 6 7 7 6 6 5 6 5 4 3 3 2 2 2 3 3 4 4 4 5 6 6 7 7 7 7 7 8 8 8 9 8 8 8 8 8 8 9 9 9 9
4 3 5 7 7 8 6 6 5 5 4 5 5 5 3 2 3 3 3 3 4 5 5 6 7 7 7 7 7 7 7 7 7 7 8 8 8 8 8 8 8 8 8 8
4 5 6 7 7 7 7 5 5 5 4 4 5 4 3 2 3 3 4 4 4 5 5 6 6 7 8 8 7 7 6 6 6 6 6 7 7 7 8 7 7 7 7 7
4 3 4 6 7 7 6 5 6 5 5 5 2 3 3 3 3 4 4 5 5 6 6 5 6 7 7 7 6 6 6 6 6 6 7 6 6 6 6 7 7 7 6 7
4 5 5 7 6 6 6 6 6 6 5 4 4 4 4 3 3 4 3 4 4 5 5 5 5 6 6 6 5 5 5 6 6 6 6 6 6 6 6 5 5 5 5 6
4 4 5 6 7 7 7 7 6 6 6 6 5 5 4 5 4 4 4 4 5 5 5 4 4 5 5 4 4 4 5 5 5 5 5 5 5 5 5 5 5 5 4 4
5 4 4 6 6 7 8 8 7 7 6 6 6 5 5 4 4 4 4 4 4 4 4 4 4 4 4 4 4 4 4 4 4 4 4 4 3 3 3 3 3 3 3 3
3 4 4 6 6 7 7 7 7 6 6 6 6 5 5 5 4 4 4 4 3 3 3 3 2 2 3 3 3 3 3 3 3 3 2 2 2 2 1 1 1 2 2 2
4 5 6 6 7 7 7 7 6 6 6 6 6 6 5 5 5 5 5 4 4 3 3 3 2 3 3 2 2 2 3 2 2 2 2 1 1 1 1 0 0 0 0 0
8 8 8 8 7 6 7 6 6 6 6 6 5 5 5 5 5 5 4 4 4 3 3 3 2 2 2 2 2 2 2 2 1 1 1 1 0 1 1 0 -0 -0 -0 -0
9 9 6 7 7 6 7 7 6 6 5 5 5 4 4 4 3 3 3 3 2 2 2 2 2 1 1 2 2 1 1 1 -0 -0 -0 -1 -1 -1 -1 -0 0 0 -0 -1
8 9 10 9 8 7 6 6 5 5 5 5 4 4 3 3 2 2 1 1 0 -0 -0 -0 0 0 0 0 0 0 0 -0 -0 -1 -1 -1 -1 -2 -2 -2 -2 -2 -1 -1
7 8 8 8 7 6 6 5 6 5 5 4 4 3 3 2 2 1 1 0 0 -0 -1 -1 -0 -1 -1 -1 -1 -1 -1 -1 -1 -2 -2 -2 -3 -3 -3 -3 -3 -3 -3 -3
6 5 6 6 7 6 6 6 6 6 5 4 4 3 2 2 1 0 -0 -1 -2 -3 -2 -1 -1 -1 -1 -2 -2 -2 -2 -2 -2 -2 -2 -3 -3 -3 -3 -3 -4 -4 -4 -4
9 9 8 9 7 7 6 5 5 5 4 4 3 2 1 1 1 -0 -1 -2 -2 -2 -2 -2 -2 -2 -2 -2 -2 -2 -3 -3 -3 -3 -3 -3 -3 -3 -4 -4 -4 -4 -4 -5
7 8 8 8 7 7 6 5 5 5 4 4 3 3 2 1 0 -1 -1 -2 -2 -2 -2 -2 -2 -2 -2 -2 -3 -3 -3 -3 -3 -3 -3 -4 -4 -4 -4 -4 -5 -5 -5 -5
7 7 7 7 7 6 6 5 5 4 4 3 3 2 2 1 0 -1 -2 -1 -2 -2 -2 -2 -2 -2 -2 -3 -3 -3 -3 -3 -3 -3 -4 -4 -4 -4 -5 -5 -5 -5 -5 -6
6 6 6 6 6 6 5 5 5 4 4 3 3 3 2 1 -0 -1 -2 -1 -2 -2 -2 -2 -2 -2 -3 -3 -3 -3 -3 -3 -4 -4 -4 -4 -5 -5 -6 -6 -6 -6 -6 -6
5 6 6 6 5 5 5 4 4 3 4 3 3 2 1 1 -0 -0 -1 -1 -2 -2 -2 -2 -3 -3 -3 -3 -4 -4 -4 -4 -5 -5 -6 -6 -6 -6 -6 -6 -6 -7 -7 -7
5 5 5 5 5 5 4 4 3 3 3 3 2 2 1 0 -0 -0 -1 -1 -2 -2 -3 -3 -3 -4 -4 -5 -5 -5 -5 -5 -5 -5 -6 -7 -6 -7 -7 -7 -7 -7 -7 -8
4 4 4 4 4 3 4 3 3 3 2 2 2 1 1 0 -0 -0 -1 -1 -2 -2 -3 -3 -4 -4 -5 -5 -6 -6 -5 -5 -5 -6 -6 -7 -7 -7 -7 -7 -8 -8 -8 -8
2 3 3 3 3 3 3 3 2 2 2 2 1 1 1 0 -0 -1 -1 -1 -2 -2 -3 -3 -4 -4 -5 -5 -5 -5 -6 -6 -6 -6 -6 -7 -8 -8 -8 -8 -8 -8 -8 -9
1 1 2 2 3 3 2 2 2 2 2 1 1 0 -0 -0 -0 -1 -1 -2 -2 -2 -3 -3 -4 -4 -5 -5 -5 -6 -6 -6 -6 -6 -7 -7 -8 -8 -8 -8 -9 -9 -9 -9
1 0 1 1 1 1 1 2 2 2 1 1 0 -0 -0 -1 -1 -1 -2 -2 -2 -3 -3 -4 -4 -4 -5 -5 -6 -6 -7 -7 -7 -7 -7 -8 -8 -8 -8 -8 -8 -9 -9 -9

GFSNGP_850_temp_129.txt.gz
Temp
6 5 6 5 5 6 5 5 5 5 5 4 3 3 1 1 3 3 3 4 4 5 5 7 9 9 10 9 9 9 9 9 10 10 10 10 10 10 11 11 11 12 12 12
6 6 6 6 5 6 6 6 6 6 5 4 3 3 1 1 2 3 3 3 3 3 6 7 8 8 9 9 9 9 9 9 9 9 9 10 10 10 10 10 10 10 10 11
5 5 6 5 6 5 6 5 5 5 5 4 4 3 2 2 2 2 2 2 3 4 6 7 8 8 8 8 9 9 9 9 9 9 9 9 9 9 10 10 10 9 10 10
3 4 6 6 6 6 6 6 5 5 5 4 4 3 2 2 2 2 2 3 4 5 6 6 7 7 8 8 9 9 9 10 10 9 9 9 9 9 9 9 9 9 9 9
4 4 5 6 6 7 6 6 5 5 4 4 5 5 3 2 2 2 3 3 3 4 4 4 5 5 6 7 7 8 7 7 7 7 7 8 9 9 9 9 9 9 9 9
3 4 6 7 6 7 6 5 5 5 4 4 5 4 2 2 3 3 3 4 5 5 5 6 5 5 6 6 6 6 6 6 6 6 6 6 7 7 7 7 7 7 7 7
4 3 4 4 6 7 7 6 5 5 4 4 2 3 3 3 3 3 3 4 5 6 5 5 5 6 6 5 5 4 5 5 5 6 6 6 6 6 6 7 7 7 7 6
3 4 4 6 6 6 6 5 6 5 5 4 4 3 3 4 4 4 4 5 5 5 5 4 5 5 4 4 3 4 5 5 5 5 5 5 5 5 5 5 5 6 5 5
3 4 5 6 6 7 7 7 6 6 5 5 4 4 4 4 4 4 4 4 4 5 5 5 5 5 5 4 3 4 5 5 4 4 4 4 5 4 4 3 3 3 3 3
4 4 3 6 7 7 7 8 7 7 6 5 5 5 4 4 4 4 4 3 4 4 4 4 3 3 4 3 3 3 3 3 3 3 3 3 3 4 3 3 3 2 2 2
2 2 4 5 6 7 7 7 7 6 7 6 6 5 5 5 5 4 4 4 3 3 3 3 3 3 3 2 2 2 2 2 2 2 2 2 2 2 2 1 1 1 1 0
3 6 7 7 9 7 7 8 8 7 7 6 6 5 5 5 4 4 4 3 3 2 2 2 2 1 1 1 1 1 1 1 1 1 1 1 1 1 1 1 1 0 0 -1
9 10 8 8 10 8 8 7 7 7 7 7 6 6 5 5 4 4 4 4 3 3 2 2 2 1 1 2 1 1 1 1 0 0 -0 0 1 1 1 0 -0 -0 -0 -0
8 10 6 8 8 8 8 8 7 7 7 6 6 6 5 5 5 4 4 3 3 3 2 2 2 1 1 1 1 0 1 1 -0 -0 -0 -0 -0 -0 -1 -1 -1 -1 -1 -1
7 8 9 9 9 8 7 6 6 6 6 6 6 6 5 5 5 5 4 4 4 4 4 3 3 2 1 1 0 0 0 0 -0 0 0 0 -0 -1 -2 -2 -2 -2 -2 -2
7 7 8 8 9 8 7 6 6 6 6 6 6 5 5 4 4 3 3 2 2 1 -0 -1 -0 -1 -1 -1 -1 -1 -1 -1 -1 -1 -1 -2 -2 -2 -2 -3 -3 -3 -3 -3
7 6 7 7 8 8 7 7 8 7 7 6 6 5 4 4 3 2 1 1 -0 -1 -1 -1 -1 -2 -1 -1 -1 -1 -1 -2 -2 -2 -2 -2 -3 -3 -3 -4 -4 -4 -4 -4
8 9 9 9 9 8 7 7 7 7 6 6 5 4 4 3 3 2 1 0 -0 -0 -1 -1 -1 -1 -1 -2 -2 -2 -2 -2 -2 -2 -3 -3 -3 -3 -4 -4 -4 -5 -5 -5
7 8 9 8 9 9 8 8 7 7 6 5 5 5 4 4 3 2 1 1 -0 -0 -0 -1 -1 -1 -1 -1 -2 -2 -2 -2 -2 -2 -3 -3 -3 -3 -4 -4 -5 -5 -5 -5
7 7 7 7 7 8 8 8 7 6 5 5 4 4 4 3 2 1 1 1 -0 -1 -1 -1 -1 -1 -2 -2 -2 -2 -2 -2 -3 -3 -4 -4 -4 -4 -5 -5 -5 -6 -6 -6
6 6 6 6 6 6 7 7 6 6 5 5 4 4 4 3 2 1 1 1 0 -2 -1 -2 -2 -2 -2 -2 -3 -3 -3 -4 -4 -4 -5 -5 -5 -5 -6 -6 -6 -6 -6 -7
6 6 6 6 6 6 6 6 5 5 4 4 4 3 3 2 1 1 0 0 -1 -2 -2 -2 -2 -3 -3 -3 -3 -4 -4 -5 -5 -5 -5 -5 -6 -7 -7 -6 -7 -7 -7 -7
6 5 5 5 5 6 5 5 5 4 4 4 4 3 3 2 1 0 0 -0 -1 -1 -2 -2 -3 -3 -3 -4 -4 -5 -5 -6 -5 -5 -6 -6 -6 -7 -7 -7 -7 -7 -7 -7
6 5 4 4 4 4 4 4 4 3 3 3 2 2 1 1 1 0 -0 -1 -1 -2 -2 -2 -3 -3 -4 -4 -4 -5 -6 -6 -6 -6 -6 -6 -6 -7 -7 -7 -7 -8 -8 -8
6 6 4 3 3 3 3 3 3 2 2 2 2 1 1 0 0 -0 -0 -1 -1 -1 -2 -2 -3 -3 -3 -4 -4 -4 -6 -6 -6 -6 -6 -6 -7 -7 -7 -8 -7 -8 -8 -8
4 3 5 4 3 3 3 3 2 2 2 2 1 1 0 -0 -0 -1 -1 -1 -1 -2 -2 -2 -3 -3 -3 -4 -5 -5 -6 -6 -6 -7 -7 -7 -7 -7 -8 -7 -7 -8 -8 -8
3 2 1 1 2 2 2 2 2 2 1 1 1 0 -0 -0 -1 -1 -1 -1 -2 -2 -3 -3 -4 -4 -4 -5 -5 -6 -6 -7 -8 -8 -8 -8 -8 -7 -7 -7 -8 -8 -8 -8

GFSNGP_850_temp_132.txt.gz
Temp
5 5 6 5 5 5 3 5 4 6 5 5 4 3 1 1 2 2 2 2 3 3 4 6 5 6 7 8 9 9 8 9 10 9 9 9 10 10 10 10 10 10 10 10
5 5 5 6 5 5 5 6 5 5 6 5 5 4 2 1 1 1 1 1 2 3 4 4 7 7 9 9 9 9 9 9 9 8 9 9 10 10 10 10 10 10 10 10
4 5 5 5 6 5 6 5 5 5 6 4 4 4 2 1 1 1 1 2 3 3 4 6 6 7 7 8 9 9 9 9 9 9 9 9 9 10 10 10 10 10 10 10
3 5 5 6 6 6 6 6 5 5 5 4 5 4 3 2 1 2 2 3 4 5 5 6 6 7 7 7 7 7 7 7 8 8 9 9 9 9 9 9 9 10 9 10
4 3 5 5 6 6 5 7 5 5 4 4 5 5 4 2 2 2 2 2 3 4 5 6 6 6 7 7 6 6 6 7 7 7 7 7 7 7 7 8 9 10 9 9
3 4 6 7 6 7 6 6 5 5 4 4 4 3 2 2 2 2 2 3 3 3 3 4 5 6 7 6 6 6 5 5 6 6 7 7 7 7 7 7 7 7 7 7
3 2 4 5 5 6 6 7 6 5 5 4 2 3 3 3 3 3 3 3 4 4 4 4 5 5 4 4 4 4 5 5 5 6 6 6 6 6 7 7 7 7 7 6
2 4 5 5 5 5 5 6 6 6 6 5 4 3 3 3 3 3 3 3 3 3 3 3 4 5 4 3 3 3 4 4 5 5 5 5 5 5 5 5 5 5 5 5
3 4 5 6 6 7 7 7 6 6 6 6 5 5 4 4 4 4 3 3 3 3 3 3 3 3 3 2 3 3 3 3 3 3 3 3 4 4 4 4 3 3 3 3
4 4 2 7 7 7 7 7 7 6 6 5 6 5 4 4 4 4 3 3 3 3 3 3 2 2 2 2 3 2 3 3 3 3 3 3 3 3 3 3 2 3 2 2
1 2 3 6 7 8 8 7 7 7 7 6 5 4 4 4 4 4 4 3 3 3 2 2 2 2 2 2 2 3 2 2 2 3 2 2 3 2 2 2 1 1 1 1
4 6 6 8 9 8 7 7 7 7 6 5 5 5 5 5 4 4 4 3 3 2 2 2 1 1 1 1 1 1 0 1 1 1 1 1 1 1 0 0 0 0 0 0
8 10 10 9 9 8 8 7 7 7 6 6 5 5 5 5 4 4 4 3 3 2 2 1 1 1 1 1 1 1 1 1 1 1 1 0 0 -0 -0 -1 -1 -1 -1 -1
7 7 7 9 10 9 8 8 7 7 7 6 6 6 6 5 5 4 4 3 3 3 2 2 2 2 1 1 1 1 1 1 1 0 0 -1 -1 -1 -2 -2 -2 -2 -2 -2
7 6 7 9 9 9 8 8 7 7 7 7 7 6 6 5 5 5 4 4 3 2 2 2 2 1 1 2 1 1 1 1 1 0 -0 -0 -1 -1 -1 -1 -2 -2 -3 -3
6 6 6 8 9 9 8 7 7 7 7 7 6 6 6 5 5 5 4 4 4 3 3 3 2 2 1 1 1 1 0 -0 -0 -1 -1 -2 -2 -2 -2 -2 -3 -3 -3 -3
4 5 6 6 7 8 9 9 9 9 8 7 8 7 7 6 6 6 5 4 4 4 4 3 3 3 2 1 1 0 -0 -1 -1 -2 -2 -2 -2 -3 -3 -3 -4 -4 -4 -5
7 6 7 8 9 9 9 9 8 8 8 8 7 7 6 6 6 6 5 4 4 3 2 1 1 0 -0 -1 -1 -1 -1 -2 -2 -2 -3 -3 -3 -3 -3 -4 -4 -4 -5 -5
6 6 6 6 7 8 8 9 9 9 8 7 6 6 6 6 5 4 4 3 2 2 1 -0 -1 -1 -1 -1 -2 -2 -2 -2 -3 -3 -3 -3 -4 -4 -4 -4 -5 -5 -5 -5
7 7 6 6 6 6 7 8 8 7 7 6 6 5 5 5 4 3 3 2 2 1 -0 -0 -1 -1 -2 -2 -2 -2 -2 -3 -3 -3 -4 -4 -4 -4 -5 -5 -5 -6 -6 -6
7 6 6 6 6 6 6 6 6 7 6 6 5 5 5 5 4 3 2 2 2 -0 -0 -1 -1 -1 -1 -2 -2 -2 -3 -3 -4 -4 -4 -4 -5 -5 -5 -5 -6 -6 -6 -6
7 7 7 6 7 7 6 6 6 6 5 5 5 5 4 4 3 3 3 2 1 0 1 0 -1 -1 -2 -2 -3 -3 -3 -4 -5 -5 -6 -5 -5 -6 -6 -6 -6 -7 -7 -7
7 7 7 6 6 6 5 6 6 5 5 5 5 5 4 4 4 3 3 2 1 0 0 -1 -1 -2 -2 -3 -3 -3 -4 -4 -5 -5 -7 -7 -7 -7 -6 -6 -7 -7 -7 -7
6 6 7 6 5 4 5 5 5 5 5 5 4 4 3 3 3 3 2 1 0 0 -0 -1 -2 -2 -2 -3 -3 -4 -4 -5 -7 -7 -7 -7 -7 -7 -7 -7 -7 -7 -8 -8
4 4 5 5 6 6 4 3 3 4 4 4 3 3 3 2 2 1 1 0 0 -0 -0 -1 -2 -2 -2 -3 -3 -4 -4 -5 -6 -6 -6 -7 -7 -7 -7 -7 -8 -8 -8 -8
3 3 4 4 5 5 5 3 2 2 2 2 2 2 2 2 1 1 0 0 -0 0 -0 -1 -1 -2 -2 -3 -3 -4 -5 -5 -6 -6 -7 -7 -8 -8 -8 -8 -8 -8 -8 -8
4 4 4 3 4 4 4 3 2 2 2 2 2 2 1 1 0 -0 -0 -0 -0 -0 -1 -1 -2 -2 -3 -3 -4 -5 -5 -6 -6 -7 -8 -8 -8 -8 -8 -7 -7 -7 -7 -8

GFSNGP_850_temp_135.txt.gz
Temp
5 5 5 5 5 5 3 4 4 6 5 6 5 4 2 2 2 2 2 1 2 2 3 4 4 5 6 7 5 7 6 7 7 8 8 8 8 8 10 9 10 11 10 10
4 5 5 5 5 5 5 5 5 5 6 5 5 5 2 2 2 1 1 1 1 2 3 3 4 5 6 6 6 7 6 6 6 7 6 7 9 9 9 10 9 10 10 9
4 4 4 5 5 5 5 5 5 5 6 5 5 5 2 1 1 1 1 1 1 2 3 3 5 6 6 7 6 6 4 4 6 7 8 8 8 9 9 9 9 9 10 9
3 4 5 7 6 6 6 5 5 5 5 4 4 4 3 2 1 2 2 2 3 3 4 4 5 6 6 6 7 7 7 7 7 8 7 9 9 9 9 9 9 9 9 9
3 3 5 6 6 5 5 6 5 5 5 4 5 5 3 2 2 2 2 2 3 3 3 4 5 5 6 7 6 7 6 7 7 8 8 8 8 8 8 8 8 8 7 7
2 3 6 7 5 6 6 6 4 5 4 4 4 4 2 2 2 2 2 3 4 4 4 5 5 5 6 5 6 5 5 6 6 6 7 7 7 7 7 7 8 8 8 7
3 3 4 4 5 6 7 7 5 5 5 4 3 4 4 3 2 2 2 2 3 4 4 3 4 5 5 4 4 4 5 5 6 6 6 5 6 6 6 6 6 6 7 6
2 3 4 4 5 5 6 6 6 6 6 5 5 4 3 3 3 3 3 3 2 3 3 3 3 4 4 4 3 3 4 4 4 5 5 4 5 5 5 5 5 5 5 5
3 4 5 6 7 8 7 7 7 7 6 6 5 4 4 4 3 3 3 3 2 3 3 3 3 3 3 2 2 3 3 4 4 4 4 4 4 4 4 4 4 4 4 4
4 4 3 7 7 7 7 8 8 8 7 7 6 5 5 4 4 3 3 3 3 2 3 3 3 3 2 2 2 2 3 3 3 3 3 3 3 3 3 3 3 3 2 2
0 2 3 6 7 8 8 7 7 7 7 7 6 6 5 5 5 4 4 3 3 3 3 2 2 1 1 1 1 2 2 2 2 2 2 2 2 2 2 2 1 2 1 1
3 6 6 9 11 9 8 8 8 7 7 6 6 6 5 5 4 4 4 3 3 3 2 2 1 1 1 1 1 1 1 1 1 1 1 1 0 0 0 0 -0 -0 -0 -0
6 6 7 8 9 10 9 9 8 8 7 7 7 6 5 5 5 4 4 4 3 3 2 2 1 1 1 1 1 1 1 1 1 1 1 1 0 0 -0 -0 -0 -1 -1 -1
7 5 4 7 9 10 10 9 8 8 8 7 7 6 5 5 5 5 5 4 4 3 3 2 2 2 2 2 1 1 1 1 1 0 0 -0 -0 -1 -1 -1 -1 -2 -2 -2
6 5 6 7 7 8 8 7 7 7 7 6 6 6 6 6 6 6 5 4 4 3 3 2 2 1 1 1 1 0 0 0 0 0 0 0 -0 -1 -1 -1 -2 -2 -3 -3
4 3 5 5 5 7 7 6 6 7 6 7 6 6 7 6 5 5 5 5 4 4 3 3 2 1 1 1 0 0 0 1 1 0 -0 -1 -1 -1 -2 -2 -2 -3 -3 -3
2 4 5 5 6 6 7 7 8 8 7 7 7 7 6 6 6 6 5 5 4 4 4 3 3 2 2 1 1 0 0 -0 -0 -0 -1 -1 -1 -2 -2 -2 -3 -3 -4 -4
4 3 2 5 6 7 7 7 7 7 7 8 7 7 6 6 6 6 5 5 5 5 4 3 2 2 1 1 1 0 0 -0 -0 -1 -2 -2 -3 -3 -3 -4 -4 -4 -4 -5
6 6 5 5 5 6 6 7 7 8 7 7 6 6 6 6 6 6 5 5 5 5 5 3 3 2 1 0 -0 -0 -1 -1 -1 -2 -2 -3 -3 -4 -4 -4 -5 -5 -5 -5
7 7 7 6 6 6 6 6 6 7 7 7 6 5 5 6 5 5 5 5 5 5 4 4 3 2 1 1 0 0 -1 -1 -2 -3 -3 -4 -4 -4 -5 -5 -5 -5 -6 -6
7 6 6 6 6 6 6 6 6 7 7 6 6 6 6 6 6 5 5 5 6 4 3 3 2 1 0 -0 -1 -2 -2 -3 -3 -4 -4 -5 -5 -5 -6 -6 -6 -6 -7 -7
6 6 6 6 6 7 6 6 5 5 5 5 5 6 5 5 5 4 4 5 4 3 3 2 1 -0 -1 -2 -2 -2 -3 -3 -3 -4 -5 -5 -6 -6 -6 -6 -6 -7 -7 -7
5 5 6 6 6 7 7 7 6 5 5 5 5 5 5 5 5 4 4 4 3 2 2 1 0 -0 -1 -2 -2 -3 -4 -4 -4 -4 -5 -6 -7 -7 -8 -7 -7 -7 -7 -7
5 5 4 4 4 5 6 7 6 6 5 5 4 4 3 3 3 3 3 2 2 1 1 1 0 -1 -1 -2 -2 -4 -4 -4 -4 -5 -6 -7 -7 -8 -8 -7 -7 -7 -7 -8
4 4 3 3 2 2 4 5 5 5 5 4 4 4 3 3 2 2 2 2 1 1 0 -0 -1 -1 -1 -1 -1 -3 -3 -4 -5 -5 -6 -6 -7 -7 -7 -8 -8 -8 -8 -8
3 2 2 3 3 3 3 2 3 3 4 4 4 3 3 2 1 1 0 0 0 0 -0 -0 -0 -1 -1 -1 -2 -3 -4 -5 -5 -6 -6 -7 -7 -8 -8 -8 -8 -7 -7 -7
3 3 3 3 4 3 3 2 1 2 2 3 3 2 1 1 1 0 -0 -0 -0 -0 -1 -1 -1 -2 -2 -2 -3 -4 -4 -5 -5 -6 -7 -7 -8 -8 -8 -8 -7 -7 -7 -7

GFSNGP_850_temp_141.txt.gz
Temp
9 10 10 9 9 9 6 7 7 9 7 9 6 5 3 3 3 2 2 2 2 2 2 3 2 2 3 5 5 5 6 6 6 6 7 7 7 7 7 8 8 8 9 9
7 10 10 9 9 10 10 10 10 9 9 11 9 7 5 4 4 3 3 2 2 2 2 2 2 2 3 5 5 6 6 6 6 6 7 7 8 8 8 8 8 8 8 8
9 10 10 9 11 10 10 11 10 10 12 10 9 8 5 4 4 4 3 3 2 2 2 2 2 2 2 4 4 5 5 3 4 5 6 6 7 7 8 8 8 8 8 9
9 10 10 10 11 10 11 11 11 11 11 10 9 7 5 4 4 4 3 3 2 2 2 2 2 4 3 5 5 5 3 1 2 4 5 5 6 6 6 7 7 7 6 7
8 10 12 12 10 9 9 12 13 11 11 10 8 7 7 4 3 3 3 3 2 2 2 4 4 4 3 4 4 5 5 3 1 3 4 5 6 5 5 5 5 5 5 7
9 8 10 12 10 9 10 10 13 12 11 10 8 9 11 5 5 4 4 4 4 3 4 4 4 4 4 4 4 3 4 4 4 4 4 7 6 3 4 4 4 3 5 6
8 8 11 13 10 9 10 12 11 11 10 9 9 10 7 6 5 5 4 4 4 4 4 4 4 3 4 4 4 3 3 3 3 4 4 4 3 3 4 5 5 5 6 5
9 9 8 10 8 10 11 9 10 9 9 8 8 6 5 5 5 4 4 4 4 4 4 4 4 4 4 4 4 4 4 4 4 4 4 3 4 4 5 5 5 5 5 5
11 12 10 9 12 10 9 10 9 9 8 8 7 6 6 6 5 5 5 5 5 5 5 5 5 4 4 4 4 4 4 5 5 5 5 5 5 5 5 5 5 5 5 5
8 13 11 11 10 9 8 8 9 8 8 7 7 6 6 6 6 6 6 5 5 5 5 4 4 4 4 4 4 4 4 4 4 4 4 4 4 4 3 3 3 3 3 3
9 10 10 10 10 8 8 8 7 7 7 7 7 6 6 5 5 5 5 5 5 5 4 4 4 4 4 4 4 3 3 4 4 4 4 4 4 4 4 3 3 3 2 2
12 10 9 10 8 7 6 7 7 6 7 8 7 6 6 5 6 6 6 6 5 5 4 4 3 3 3 3 3 3 2 2 2 2 2 2 2 2 2 2 1 1 1 0
9 7 6 6 6 7 6 6 6 6 6 7 8 7 6 6 6 6 6 5 5 5 4 3 3 3 3 3 2 2 2 1 1 1 1 1 1 1 1 0 0 -0 -0 -1
6 5 5 7 6 5 5 5 6 6 6 6 6 7 7 6 6 6 6 6 5 5 4 3 3 3 2 2 1 1 1 1 1 1 0 0 0 0 -0 -0 -1 -1 -1 -1
5 4 4 3 3 4 4 4 5 6 5 5 6 6 6 7 7 7 7 6 6 5 4 4 3 3 2 2 1 1 1 1 1 0 0 0 0 -0 -0 -0 -0 -1 -1 -2
5 5 4 2 2 2 3 4 4 5 5 5 6 7 7 7 7 7 6 6 6 6 5 4 4 3 3 2 2 1 1 0 -0 -0 -0 -0 -0 -0 -1 -1 -1 -2 -2 -2
4 4 4 3 3 3 4 5 4 5 6 5 6 6 5 6 6 6 7 6 6 6 5 5 5 4 3 3 2 1 0 0 -0 -1 -1 -1 -1 -1 -1 -2 -2 -2 -2 -3
6 5 5 5 6 6 6 7 7 7 7 7 7 7 6 6 6 6 6 6 6 5 5 5 5 4 3 3 2 1 0 -0 -1 -1 -1 -1 -1 -2 -2 -2 -2 -2 -2 -3
6 6 7 7 7 7 7 7 7 7 7 6 6 7 7 7 7 7 6 5 5 5 6 5 5 4 4 3 2 1 0 -0 -1 -1 -1 -2 -2 -2 -2 -3 -3 -3 -3 -3
7 7 7 7 7 6 6 6 6 6 5 5 5 5 5 6 5 5 5 5 6 7 6 5 5 4 4 3 2 1 0 -1 -1 -1 -2 -2 -2 -3 -3 -3 -3 -3 -4 -4
6 6 6 6 6 6 5 5 5 5 5 4 4 5 5 5 5 4 3 2 5 4 4 4 4 4 4 3 2 1 0 -1 -1 -2 -2 -2 -3 -3 -3 -3 -4 -3 -4 -5
5 5 5 5 5 4 4 4 4 4 5 5 4 4 4 5 5 5 5 5 5 4 4 3 3 3 3 2 2 1 0 -1 -1 -2 -2 -3 -3 -3 -3 -4 -4 -5 -5 -6
5 4 4 4 4 4 4 5 4 4 4 4 4 4 4 4 4 3 4 5 4 4 3 4 3 2 2 1 1 0 -0 -1 -2 -3 -3 -3 -4 -4 -4 -5 -5 -5 -6 -7
4 4 4 3 3 3 4 4 4 4 4 4 4 4 4 3 4 4 4 3 3 3 3 3 2 2 1 1 0 -0 -1 -2 -3 -3 -4 -4 -4 -4 -5 -5 -6 -6 -7 -7
3 3 3 3 3 3 3 3 3 3 3 3 3 3 3 3 2 3 3 3 3 2 1 1 0 -0 -1 -1 -1 -2 -3 -3 -3 -3 -4 -4 -5 -5 -6 -6 -6 -7 -7 -7
2 2 3 3 3 3 2 2 2 3 2 2 3 2 2 1 1 1 1 1 1 2 1 1 0 -0 -1 -2 -3 -3 -4 -4 -4 -4 -5 -5 -6 -6 -6 -6 -6 -7 -7 -8
3 3 3 4 3 3 2 2 1 2 1 -0 -1 0 -0 -0 -1 -1 -1 -1 -0 0 0 -1 -1 -2 -3 -3 -4 -4 -4 -5 -5 -5 -5 -6 -6 -6 -6 -7 -7 -7 -8 -8

GFSNGP_850_temp_144.txt.gz
Temp
8 9 9 8 8 9 5 7 6 8 6 8 9 6 5 5 4 4 3 3 3 3 2 3 3 3 3 5 5 5 5 6 7 7 7 8 7 7 7 7 8 8 8 8
6 8 8 8 9 9 8 8 8 8 8 11 9 8 7 5 5 4 4 3 3 3 2 2 2 2 1 2 3 4 3 5 6 6 6 7 7 8 8 8 8 8 8 8
6 9 8 7 9 9 9 9 9 8 9 10 9 9 7 5 5 4 4 3 3 3 3 3 2 3 2 2 3 3 2 3 5 5 6 7 7 7 7 8 8 8 9 8
5 6 7 10 10 10 9 10 9 9 10 10 9 8 7 6 5 4 4 3 4 4 4 3 4 4 4 3 3 2 3 3 4 5 5 5 6 6 6 6 7 7 7 7
6 6 7 10 8 9 8 9 9 9 10 10 9 7 7 7 6 5 5 4 3 3 4 4 4 4 5 5 4 3 3 3 3 4 5 4 4 4 4 4 6 6 5 5
6 6 7 11 9 10 10 6 11 11 10 9 8 4 5 7 6 6 5 5 4 4 4 5 5 4 5 5 5 4 4 3 3 4 4 3 3 3 3 3 4 6 4 4
4 5 7 11 9 9 8 8 11 11 11 10 6 7 8 7 7 6 6 5 5 4 4 4 4 4 4 4 4 4 4 4 4 4 4 4 4 3 3 4 4 3 3 3
5 5 5 9 8 8 9 10 10 10 10 10 9 8 8 7 7 7 6 5 5 5 5 5 5 4 4 4 4 3 4 4 5 5 5 5 4 4 4 3 3 2 2 3
6 6 9 9 10 10 10 9 10 9 9 9 8 8 8 7 6 6 6 5 5 5 5 5 5 5 5 5 5 4 4 4 4 4 4 3 3 3 3 3 3 3 3 3
7 9 9 10 10 11 10 10 9 9 9 9 8 8 8 7 7 7 6 6 5 5 5 5 5 5 5 5 4 4 4 3 3 3 3 4 4 3 4 5 5 5 5 5
5 7 9 9 9 9 9 9 8 8 8 8 8 8 8 7 7 7 7 7 6 6 6 5 5 4 4 4 4 4 4 4 4 4 4 3 4 4 4 4 4 4 4 4
5 9 8 8 8 7 7 7 8 7 7 7 7 7 8 7 7 7 7 7 6 6 6 6 5 5 4 4 4 4 4 4 3 3 3 3 3 3 3 3 3 3 3 2
8 8 7 7 8 7 5 5 6 6 7 7 7 7 7 7 7 7 7 7 7 7 6 6 5 5 4 4 3 3 3 3 3 2 2 2 2 2 2 2 1 1 1 1
7 6 6 8 7 6 6 5 5 5 6 7 7 6 6 7 7 7 7 8 7 7 6 6 6 6 5 4 4 3 3 3 2 2 2 2 1 1 1 0 0 0 0 -0
7 6 6 5 5 5 4 4 4 5 5 6 6 6 6 6 7 7 7 7 6 6 6 7 6 6 6 5 4 4 3 3 2 2 1 1 0 0 -0 -1 -1 -1 -1 -1
6 6 5 5 4 4 4 4 4 5 5 6 6 6 6 6 6 6 6 6 6 7 7 6 6 6 5 4 4 4 3 3 2 1 1 0 -0 -1 -1 -1 -2 -2 -2 -2
6 6 5 5 5 5 5 5 5 4 5 5 6 6 6 6 6 6 7 6 6 7 7 6 6 6 5 5 5 4 4 3 2 1 1 0 -0 -1 -1 -2 -2 -2 -2 -2
7 7 7 7 7 7 6 6 6 6 6 6 5 5 5 5 5 5 5 5 5 5 6 5 6 6 5 5 5 4 4 3 2 1 1 -0 -1 -1 -2 -2 -2 -2 -3 -3
7 7 6 6 6 6 6 6 6 6 5 5 6 6 6 6 6 5 5 5 4 4 6 5 4 4 4 4 4 3 3 2 2 1 0 -1 -2 -2 -2 -3 -3 -3 -4 -4
6 6 6 6 6 6 6 5 5 5 5 4 4 5 5 5 5 5 5 5 6 6 5 5 4 4 4 3 3 3 2 2 2 1 0 -1 -2 -2 -3 -3 -4 -4 -4 -4
6 6 6 5 5 5 5 4 4 4 4 4 4 4 4 4 4 4 4 4 6 4 4 4 4 4 4 3 2 2 2 2 2 1 0 -1 -2 -2 -3 -4 -4 -4 -5 -5
6 6 5 5 5 5 5 4 4 4 4 4 4 4 4 4 4 4 4 3 5 4 4 4 4 3 2 1 -0 -0 0 1 0 0 -1 -1 -2 -3 -3 -3 -4 -4 -5 -6
6 5 5 5 4 4 4 4 3 3 3 3 4 3 3 3 3 2 4 5 3 3 3 3 3 2 2 0 -0 -0 -1 -1 -1 -1 -2 -2 -3 -3 -4 -4 -5 -5 -5 -6
5 5 5 4 4 4 5 5 4 3 3 4 4 3 3 3 4 3 2 2 2 2 2 2 2 2 1 0 -1 -1 -1 -1 -2 -3 -3 -4 -4 -4 -4 -5 -5 -5 -6 -6
4 4 4 4 3 4 4 4 3 3 3 3 3 3 2 1 -0 1 1 1 1 0 1 1 1 1 1 0 -1 -1 -2 -2 -3 -3 -3 -4 -4 -5 -5 -5 -6 -6 -6 -7
4 3 4 4 3 3 3 3 2 2 2 2 3 2 2 1 -0 -1 -2 -1 -1 -1 -1 -1 -0 -0 -1 -1 -2 -2 -3 -3 -3 -4 -4 -4 -5 -5 -5 -6 -7 -7 -7 -8
4 4 4 4 3 3 2 1 1 2 1 1 1 2 1 0 -1 -2 -3 -3 -2 -2 -2 -1 -1 -2 -3 -2 -2 -3 -4 -4 -4 -4 -5 -5 -5 -5 -6 -7 -7 -7 -8 -8